[[{"header":{"parameterUnit":"m.s-1","parameterCategory":1,"la1":30.2991,"la2":30.254,"lo1":-89.0895,"lo2":-89.0444,"dy":0.0017,"dx":0.0017,"nx":28,"ny":28,"refTime":"2026-02-16T03:00:00:Z","depth":0,"parameterNumber":2,"parameterNumberName":"U-component_of_WINDS"},"data":[0,0,0,0,0,0,0,0,0,0,0,0,0,0,0,0,0,0,0,0,0,0,0,0,0,0,0,0,0,0,0,0,0,0,0,0,0,0,0,0,0,0,0,0,0,0,0,0,0,0,0,0,0,0,0,0,0,0,-0.0842,-0.0842,0,-0.0843,-0.0843,-0.0843,-0.0849,-0.085,-0.085,-0.085,-0.0851,-0.0851,-0.085,0,0,0,0,0,0,0,0,0,0,0,0,0,-0.0847,-0.0846,-0.0842,-0.0842,-0.0842,-0.0843,-0.0843,-0.0843,-0.0849,-0.085,-0.085,-0.085,-0.0851,-0.0851,-0.085,0,0,0,0,0,0,0,0,0,0,0,0,0,-0.0846,-0.0846,-0.0842,-0.0846,-0.0846,-0.0843,-0.0843,-0.0843,-0.0849,-0.085,-0.085,-0.085,-0.0851,-0.0851,-0.085,-0.0844,0,0,-0.085,-0.085,0,0,0,0,0,0,0,0,-0.0846,-0.0845,-0.0845,-0.0845,-0.0846,-0.0846,-0.0845,-0.0843,-0.0849,-0.0848,-0.085,-0.085,-0.0849,-0.0849,-0.0849,-0.0844,-0.0844,-0.085,-0.085,-0.0849,-0.0849,0,0,0,0,0,0,0,-0.0846,-0.0845,-0.0843,-0.0845,-0.0846,-0.0847,-0.0847,-0.0844,-0.0847,-0.0848,-0.0849,-0.0849,-0.0849,-0.0849,-0.0849,-0.0844,-0.085,-0.085,-0.0849,-0.0849,-0.0834,-0.0833,0,0,0,0,0,0,-0.0845,-0.0846,-0.0842,-0.0843,-0.0846,-0.0847,-0.0847,-0.0846,-0.0847,-0.0848,-0.0848,-0.0849,-0.0849,-0.0849,-0.0849,-0.0841,-0.0849,-0.0849,-0.0849,-0.0834,-0.0834,-0.0833,0,0,0,0,0,0,-0.0845,-0.0845,-0.0842,-0.0844,-0.0844,-0.0846,-0.0845,-0.0846,-0.0845,-0.0847,-0.0848,-0.0847,-0.0849,-0.0849,-0.0845,-0.0841,-0.0849,-0.0849,-0.0834,-0.0834,-0.0833,-0.0826,0,0,0,0,0,0,-0.0846,-0.0845,-0.0843,-0.0844,-0.0844,-0.0839,-0.0845,-0.0846,-0.0845,-0.0846,-0.0847,-0.0847,-0.0849,-0.0845,-0.0845,-0.0841,-0.0849,-0.0835,-0.0834,-0.0834,-0.0827,-0.0826,-0.0824,0,0,0,0,0,-0.0846,-0.0841,-0.0843,-0.0842,-0.0841,-0.0839,-0.0839,-0.0841,-0.0845,-0.0842,-0.0843,-0.0847,-0.0841,-0.0845,-0.0844,-0.0841,-0.0835,-0.0834,-0.0834,-0.0827,-0.0826,-0.0824,0,0,0,0,0,0,-0.084,-0.0841,-0.0843,-0.0839,-0.0839,-0.084,-0.0837,-0.084,-0.0839,-0.0839,-0.0843,-0.0843,-0.0838,-0.0839,-0.0843,-0.0834,-0.0839,-0.0838,-0.0834,-0.0833,-0.0832,-0.0832,-0.0849,0,0,0,0,0,-0.0838,-0.0836,-0.0837,-0.0833,-0.0833,-0.0835,-0.0834,-0.0836,-0.0836,-0.0836,-0.0837,-0.0837,-0.0835,-0.0834,-0.0832,-0.0826,-0.0827,-0.0824,-0.0822,-0.0821,-0.0821,-0.0818,-0.0816,-0.0831,-0.0831,-0.0831,0,0,-0.0834,-0.0835,-0.0833,-0.0832,-0.0832,-0.083,-0.0835,-0.0832,-0.0831,-0.0836,-0.0832,-0.0832,-0.0832,-0.0827,-0.0825,-0.0828,-0.0817,-0.0821,-0.082,-0.082,-0.0817,-0.0815,-0.0814,-0.0831,-0.0831,-0.0831,0,0,-0.0826,-0.0826,-0.0823,-0.0823,-0.0822,-0.0824,-0.0823,-0.0823,-0.0824,-0.082,-0.0823,-0.0821,-0.0818,-0.0818,-0.0817,-0.0808,-0.0811,-0.0807,-0.0801,-0.0798,-0.0797,-0.0796,-0.0793,-0.0791,-0.0806,-0.0806,-0.0806,0,-0.0822,-0.0819,-0.0821,-0.0818,-0.0817,-0.0821,-0.0817,-0.0817,-0.0816,-0.0815,-0.0818,-0.0813,-0.0814,-0.0808,-0.0806,-0.0805,-0.0804,-0.0807,-0.0797,-0.0796,-0.0795,-0.0792,-0.0791,-0.0806,-0.0806,-0.0806,-0.0806,0,-0.0813,-0.0811,-0.0808,-0.0807,-0.0805,-0.0802,-0.0804,-0.0802,-0.0803,-0.0804,-0.08,-0.08,-0.0798,-0.0797,-0.0799,-0.0792,-0.0793,-0.0796,-0.0801,-0.0793,-0.079,-0.0789,-0.0805,-0.0805,-0.0806,-0.0806,0,0,-0.0803,-0.0802,-0.0801,-0.08,-0.08,-0.0798,-0.0794,-0.0792,-0.0791,-0.079,-0.0787,-0.0784,-0.0786,-0.0785,-0.0787,-0.0784,-0.0776,-0.0787,-0.0787,-0.0785,-0.0768,-0.0767,-0.0765,-0.0778,-0.0778,-0.0777,-0.0769,0,-0.0796,-0.079,-0.0791,-0.0785,-0.0783,-0.0786,-0.0782,-0.0782,-0.0782,-0.078,-0.078,-0.0777,-0.0781,-0.078,-0.0777,-0.0778,-0.0773,-0.0778,-0.0775,-0.0775,-0.0776,-0.0764,-0.0762,-0.0754,-0.0767,-0.0767,-0.0767,0,-0.0787,-0.0785,-0.0779,-0.0778,-0.0777,-0.0774,-0.0772,-0.077,-0.0769,-0.0769,-0.0767,-0.0769,-0.0765,-0.0769,-0.0764,-0.0768,-0.0766,-0.0766,-0.0766,-0.0766,-0.0771,-0.0765,-0.0752,-0.0751,-0.0765,-0.0766,-0.0766,0,-0.078,-0.0776,-0.0772,-0.0771,-0.077,-0.0768,-0.0767,-0.0766,-0.0765,-0.0763,-0.0762,-0.0759,-0.0758,-0.0756,-0.0757,-0.076,-0.0751,-0.0756,-0.0752,-0.0752,-0.0751,-0.0751,-0.0738,-0.0748,-0.0748,-0.0748,-0.0749,0,-0.0772,-0.0768,-0.0769,-0.0766,-0.0762,-0.0763,-0.0758,-0.0758,-0.0757,-0.0754,-0.0756,-0.0753,-0.0755,-0.0752,-0.0752,-0.0748,-0.0747,-0.0747,-0.0748,-0.0748,-0.0748,-0.0747,-0.0748,-0.0748,-0.0748,-0.0748,-0.0748,0,-0.0765,-0.0765,-0.076,-0.0759,-0.0759,-0.0755,-0.0754,-0.0752,-0.0752,-0.0748,-0.0747,-0.0747,-0.0744,-0.0744,-0.0741,-0.0741,-0.0736,-0.0736,-0.0736,-0.0737,-0.0733,-0.0733,-0.072,-0.0718,-0.0729,-0.0729,-0.0729,0,-0.076,-0.0757,-0.0755,-0.0753,-0.0752,-0.075,-0.0748,-0.0748,-0.0747,-0.0744,-0.0742,-0.0739,-0.0736,-0.0731,-0.0731,-0.0728,-0.0729,-0.0724,-0.0728,-0.0728,-0.0729,-0.073,-0.0729,-0.0724,-0.0723,-0.0723,-0.0723,0,-0.0751,-0.0751,-0.0749,-0.0746,-0.0744,-0.0742,-0.074,-0.0738,-0.0738,-0.0736,-0.0733,-0.0731,-0.0727,-0.0724,-0.0721,-0.072,-0.0722,-0.0722,-0.0721,-0.0721,-0.0721,-0.0721,-0.0734,-0.0722,-0.0722,-0.0722,-0.0723,-0.0723,-0.0745,-0.0743,-0.0741,-0.0738,-0.0736,-0.0734,-0.0732,-0.0731,-0.0728,-0.0725,-0.0725,-0.0721,-0.0719,-0.0715,-0.0714,-0.0711,-0.0713,-0.0711,-0.0711,-0.0711,-0.071,-0.0721,-0.071,-0.071,-0.071,-0.071,-0.0711,0,-0.0737,-0.0736,-0.0733,-0.073,-0.0728,-0.0729,-0.0726,-0.0724,-0.0721,-0.0719,-0.0716,-0.0712,-0.0708,-0.0707,-0.0704,-0.0702,-0.0702,-0.0701,-0.0701,-0.0701,-0.0709,-0.071,-0.07,-0.07,-0.07,-0.07,-0.07,-0.07,-0.0733,-0.0729,-0.0728,-0.0723,-0.0721,-0.0718,-0.0716,-0.0714,-0.0712,-0.0707,-0.0705,-0.0704,-0.0702,-0.0698,-0.0695,-0.0695,-0.0694,-0.0692,-0.0692,-0.07,-0.0701,-0.0702,-0.0703,-0.0692,-0.0692,-0.0684,-0.0684,-0.0684]},{"header":{"parameterUnit":"m.s-1","parameterCategory":1,"la1":30.2991,"la2":30.254,"lo1":-89.0895,"lo2":-89.0444,"dy":0.0017,"dx":0.0017,"nx":28,"ny":28,"refTime":"2026-02-16T03:00:00:Z","depth":0,"parameterNumber":3,"parameterNumberName":"V-component_of_WINDS"},"data":[0,0,0,0,0,0,0,0,0,0,0,0,0,0,0,0,0,0,0,0,0,0,0,0,0,0,0,0,0,0,0,0,0,0,0,0,0,0,0,0,0,0,0,0,0,0,0,0,0,0,0,0,0,0,0,0,0,0,-1.2982,-1.2982,0,-1.2947,-1.2947,-1.2946,-1.2917,-1.2917,-1.2917,-1.2917,-1.288,-1.2879,-1.2878,0,0,0,0,0,0,0,0,0,0,0,0,0,-1.3025,-1.3025,-1.2982,-1.2982,-1.2982,-1.2947,-1.2947,-1.2946,-1.2917,-1.2917,-1.2917,-1.2916,-1.288,-1.2879,-1.2878,0,0,0,0,0,0,0,0,0,0,0,0,0,-1.3,-1.3024,-1.2983,-1.2963,-1.2961,-1.2947,-1.2947,-1.2946,-1.2918,-1.2917,-1.2917,-1.2916,-1.288,-1.2879,-1.2878,-1.2881,0,0,-1.2875,-1.2875,0,0,0,0,0,0,0,0,-1.3001,-1.2998,-1.2966,-1.2964,-1.2962,-1.2936,-1.2948,-1.2924,-1.2918,-1.2934,-1.2917,-1.2916,-1.2899,-1.2896,-1.2891,-1.2879,-1.2877,-1.2875,-1.2874,-1.2874,-1.2874,0,0,0,0,0,0,0,-1.3003,-1.3,-1.2968,-1.2966,-1.2963,-1.2956,-1.2952,-1.2944,-1.2919,-1.2933,-1.293,-1.2927,-1.2898,-1.2892,-1.289,-1.2877,-1.2875,-1.2874,-1.2873,-1.2873,-1.2867,-1.2868,0,0,0,0,0,0,-1.3008,-1.3001,-1.297,-1.2967,-1.2981,-1.2956,-1.2951,-1.2945,-1.2919,-1.2915,-1.2927,-1.2925,-1.2894,-1.2891,-1.2888,-1.2891,-1.2874,-1.2873,-1.2872,-1.2867,-1.2867,-1.2868,0,0,0,0,0,0,-1.3009,-1.3005,-1.2971,-1.2984,-1.2979,-1.2956,-1.2949,-1.2945,-1.2939,-1.2915,-1.2911,-1.2926,-1.2893,-1.289,-1.2883,-1.2889,-1.2872,-1.2871,-1.2866,-1.2867,-1.2868,-1.2895,0,0,0,0,0,0,-1.301,-1.3006,-1.3007,-1.2984,-1.2978,-1.2967,-1.2949,-1.2944,-1.2937,-1.2934,-1.2913,-1.2909,-1.2893,-1.2885,-1.2882,-1.2887,-1.2871,-1.2866,-1.2867,-1.2867,-1.2894,-1.2897,-1.29,0,0,0,0,0,-1.3012,-1.3015,-1.3007,-1.3003,-1.2979,-1.2967,-1.2964,-1.2946,-1.2937,-1.2938,-1.2923,-1.2909,-1.2889,-1.2885,-1.2881,-1.2886,-1.2865,-1.2866,-1.2867,-1.2893,-1.2896,-1.29,0,0,0,0,0,0,-1.3038,-1.3012,-1.3002,-1.2998,-1.2985,-1.2962,-1.2962,-1.295,-1.2939,-1.2937,-1.2914,-1.291,-1.2906,-1.2895,-1.2891,-1.2888,-1.2875,-1.2876,-1.2896,-1.2899,-1.2902,-1.2905,-1.287,0,0,0,0,0,-1.3044,-1.3037,-1.3014,-1.3012,-1.3007,-1.2986,-1.298,-1.2967,-1.2953,-1.2947,-1.2932,-1.2918,-1.2909,-1.2903,-1.2893,-1.2892,-1.2888,-1.2894,-1.2897,-1.2899,-1.29,-1.2901,-1.2904,-1.2872,-1.2872,-1.2872,0,0,-1.3055,-1.3039,-1.3036,-1.3017,-1.3006,-1.3,-1.2981,-1.2975,-1.297,-1.2946,-1.2939,-1.2928,-1.2911,-1.2908,-1.2906,-1.2899,-1.2908,-1.29,-1.2903,-1.2902,-1.2902,-1.2905,-1.2908,-1.2872,-1.2872,-1.2872,0,0,-1.3072,-1.3059,-1.3057,-1.3046,-1.3029,-1.3016,-1.3015,-1.2995,-1.2986,-1.2979,-1.2962,-1.2956,-1.294,-1.2929,-1.2922,-1.2936,-1.2924,-1.2934,-1.2949,-1.295,-1.2952,-1.2954,-1.2961,-1.2964,-1.2934,-1.2934,-1.2934,0,-1.3088,-1.3077,-1.3058,-1.3053,-1.3046,-1.3024,-1.3023,-1.3013,-1.2994,-1.299,-1.2982,-1.2963,-1.295,-1.2945,-1.2949,-1.2943,-1.2942,-1.2936,-1.2953,-1.2955,-1.2957,-1.2964,-1.2966,-1.2936,-1.2936,-1.2936,-1.2935,0,-1.3098,-1.3091,-1.3092,-1.3075,-1.3068,-1.3064,-1.3045,-1.304,-1.3028,-1.3016,-1.301,-1.2994,-1.2981,-1.2979,-1.2966,-1.2972,-1.2969,-1.2958,-1.2945,-1.2962,-1.2968,-1.297,-1.2938,-1.2937,-1.2937,-1.2937,0,0,-1.3131,-1.3104,-1.3104,-1.3097,-1.3077,-1.3072,-1.3068,-1.3056,-1.3053,-1.304,-1.3038,-1.3025,-1.3015,-1.3007,-1.2993,-1.2994,-1.3009,-1.2983,-1.2982,-1.299,-1.3016,-1.3026,-1.3029,-1.3,-1.3,-1.3,-1.3018,0,-1.3145,-1.3138,-1.3121,-1.3119,-1.3114,-1.3094,-1.3091,-1.3079,-1.3067,-1.3061,-1.3047,-1.304,-1.3026,-1.3021,-1.3021,-1.3007,-1.3014,-1.3005,-1.2998,-1.2998,-1.3004,-1.3032,-1.3042,-1.306,-1.302,-1.3021,-1.3021,0,-1.3162,-1.3152,-1.315,-1.3132,-1.3129,-1.3127,-1.3115,-1.3109,-1.3095,-1.3087,-1.3078,-1.3064,-1.306,-1.3047,-1.3042,-1.3036,-1.3032,-1.3025,-1.3025,-1.3025,-1.3012,-1.3034,-1.3064,-1.3068,-1.3024,-1.3024,-1.3023,0,-1.3188,-1.3173,-1.3171,-1.3165,-1.3144,-1.3143,-1.3134,-1.312,-1.3114,-1.3104,-1.3101,-1.309,-1.3084,-1.3077,-1.306,-1.3052,-1.3057,-1.3043,-1.3051,-1.3052,-1.3054,-1.3054,-1.3086,-1.3049,-1.3049,-1.3049,-1.3049,0,-1.3207,-1.3207,-1.3183,-1.3181,-1.3181,-1.3161,-1.3162,-1.3151,-1.3139,-1.3135,-1.3117,-1.3114,-1.3091,-1.3086,-1.3073,-1.3072,-1.3069,-1.3063,-1.306,-1.3065,-1.3066,-1.3063,-1.3062,-1.305,-1.3049,-1.3049,-1.3049,0,-1.3236,-1.322,-1.3216,-1.3197,-1.3192,-1.3193,-1.3176,-1.3174,-1.3162,-1.3158,-1.3156,-1.3136,-1.3129,-1.3112,-1.31,-1.3091,-1.3094,-1.3087,-1.3099,-1.3097,-1.3108,-1.3108,-1.314,-1.3144,-1.3103,-1.3103,-1.3103,0,-1.325,-1.325,-1.3231,-1.3228,-1.322,-1.3214,-1.3209,-1.319,-1.3186,-1.3171,-1.3171,-1.3163,-1.3155,-1.3145,-1.313,-1.3122,-1.3115,-1.3127,-1.3114,-1.3121,-1.3118,-1.3119,-1.3119,-1.3131,-1.3131,-1.3132,-1.3132,0,-1.3277,-1.327,-1.3263,-1.3254,-1.3248,-1.324,-1.323,-1.3229,-1.3208,-1.3204,-1.3197,-1.3191,-1.318,-1.3172,-1.3162,-1.3153,-1.314,-1.3136,-1.3138,-1.3145,-1.3153,-1.315,-1.3109,-1.3136,-1.3135,-1.3135,-1.3135,-1.3135,-1.33,-1.33,-1.3287,-1.3281,-1.3272,-1.3264,-1.3262,-1.325,-1.3244,-1.3234,-1.3223,-1.3218,-1.3206,-1.319,-1.3182,-1.3178,-1.3171,-1.3173,-1.3174,-1.3175,-1.3179,-1.3152,-1.3176,-1.3176,-1.3176,-1.3175,-1.3175,0,-1.3328,-1.3319,-1.3314,-1.3302,-1.3297,-1.3285,-1.3275,-1.3272,-1.3267,-1.3257,-1.3251,-1.3244,-1.3237,-1.3222,-1.3214,-1.3214,-1.3208,-1.3212,-1.3213,-1.3212,-1.3185,-1.3185,-1.3218,-1.3218,-1.3218,-1.3218,-1.3218,-1.3218,-1.3342,-1.3341,-1.3333,-1.3328,-1.3319,-1.3314,-1.331,-1.3303,-1.3295,-1.3288,-1.3282,-1.3273,-1.3261,-1.3252,-1.3246,-1.3242,-1.324,-1.3248,-1.3242,-1.3217,-1.3213,-1.3209,-1.3209,-1.3247,-1.3247,-1.3269,-1.3269,-1.3269]}]]